Voltar ao catálogo

OICETS

AtivoCiênciaPO
NORAD 28809·PAYLOAD·🇯🇵 Japan

Lançado Aug 23, 2005 de Baikonur Cosmodrome

Loading…

Próximas Passagens (próximas 24 horas)

TLE

AtualizadoSource: Space-Track

Época: Sep 14, 2026, 14:42 UTC

1 28809U 05031A   26257.61265727  .00009539  00000-0  38456-3 0  9999
2 28809  98.0518 159.2880 0020450  70.4680 289.8763 15.24878205152226

Acompanhe OICETS em tempo real com AllMySat

Download on the App Store